STARLINK-30138, 57605

Orbit data source: Space-Track

STARLINK-30138, 57605 is a payload satellite owned by SpaceX/Seattle (US) in LEO that was launched on Fri, 11 Aug 2023 UTC via an FALCON 9 launch vehicle from the Air Force Eastern Test Range (AFETR). Payload-class satellites include a variety of spacecraft equipped with specific instruments for various scientific and technological missions. These include communications satellites like Starlink; space stations such as the ISS; scientific satellites like the Hubble; Earth observation satellites from companies like Planet Labs, Umbra, and HawkEye 360; GPS; miniature CubeSats for education and research; and military/defense satellites.

Loading next visibility...
Identifier
57605, 2023-119D
Orbit
LEO
Country
Flag of USUS
Related business
Manufacturer
SpaceX/Seattle
Mission
Operational Commercial Communications
Bus & Motor
STARLINK V2M, Unknown motor
Mass
730 kg wet, ~700 kg dry
Launch date (UTC)
2023-08-11 (3 years ago)
Launch vehicle
FALCON 9
Launch site
Air Force Eastern Test Range (AFETR)
Object type
Payload
Rocket body
Debris
Shape & HBR
Box + 2 Pan, 17.7 m
Radar Cross Section
33.884 m², Large (>1 m²)

Expand to show TLE details & history
Last TLE update: 1 day ago

TLE from 1 day ago
0 STARLINK-30138
1 57605U 23119D   26094.55972345  .00008489  00000-0  32595-3 0  9996
2 57605  43.0025 295.4157 0001898 296.4722  63.5934 15.26723100147043
Epoch: 2026-04-04T13:26Z
TLE epoch observation values (Epoch: 2026-04-04T13:26:00.106Z)
Latitude
-0.00004°
Longitude
-98.96254°
Altitude
484.813 km
Speed
7.625 km/s
True Right ascension
19h 41m 39s
True Declination
0° 00' 00"
Sunlit
Object was in daylight at epoch
Visualization orbit readout
Latitude
Unknown
Longitude
Unknown
Altitude
Unknown
Speed
Unknown
Apparent Right ascension
Unknown
Apparent Declination
Unknown
Sunlit
N/A
Visualization observer readout
Local Sidereal Time
20:51:36
Azimuth
Unknown
Elevation
Unknown
Doppler factor
Unknown
Orbital elements
Apogee altitude
488.863 km
Perigee altitude
486.257 km
Semi-major axis
6,865.697 km
Eccentricity
0.00019
Inclination
43.0025°
RAAN
295.4157°
Arg. of periapsis
296.4722°
True anomaly
63.61288°
Mean anomaly
63.5934°
Eccentric anomaly
63.60314°
Mean motion
3.81519 °/min
Orbital period
94.36 mins
BSTAR
0.00032595
Loading maneuver chart data...
Computing Atmospheric mass density...
Loading historical data...
Loading historical data...
Loading historical data...
Loading historical data...
Loading historical data...
Loading historical data...
Loading historical data...

Documentation

Showing up to 5 results
|